TimePST,TemperatureF,Dew PointF,Humidity,Sea Level PressureIn,VisibilityMPH,Wind Direction,Wind SpeedMPH,Gust SpeedMPH,PrecipitationIn,Events,Conditions,WindDirDegrees,DateUTC
12:53 AM,35.1,21.0,57,29.78,10.0,SSE,9.2,-,N/A,,Clear,160,2013-02-23 08:53:00
1:53 AM,33.1,21.0,61,29.81,10.0,Calm,Calm,-,N/A,,Clear,0,2013-02-23 09:53:00
2:53 AM,30.0,19.9,66,29.82,10.0,SE,9.2,-,N/A,,Clear,140,2013-02-23 10:53:00
3:53 AM,30.0,19.9,66,29.83,10.0,SSW,11.5,-,N/A,,Clear,210,2013-02-23 11:53:00
4:53 AM,27.0,19.9,75,29.85,10.0,South,4.6,-,N/A,,Clear,170,2013-02-23 12:53:00
5:53 AM,26.1,19.9,78,29.88,10.0,SSW,4.6,-,N/A,,Clear,210,2013-02-23 13:53:00
6:53 AM,26.1,19.9,78,29.90,10.0,SW,8.1,-,N/A,,Clear,220,2013-02-23 14:53:00
7:53 AM,30.9,23.0,72,29.94,10.0,Calm,Calm,-,N/A,,Clear,0,2013-02-23 15:53:00
8:53 AM,36.0,26.1,67,29.96,10.0,SW,8.1,-,N/A,,Clear,220,2013-02-23 16:53:00
9:53 AM,41.0,24.1,51,29.99,10.0,SSW,6.9,-,N/A,,Clear,200,2013-02-23 17:53:00
10:53 AM,45.0,24.1,44,30.00,10.0,SSE,5.8,-,N/A,,Clear,160,2013-02-23 18:53:00
11:53 AM,48.9,24.1,38,30.01,10.0,NE,5.8,-,N/A,,Clear,50,2013-02-23 19:53:00
12:18 PM,51.8,21.2,30,29.99,10.0,NNW,18.4,-,N/A,,Clear,330,2013-02-23 20:18:00
12:53 PM,53.1,21.9,30,30.01,10.0,WNW,15.0,24.2,N/A,,Clear,300,2013-02-23 20:53:00
1:53 PM,51.1,21.0,31,30.03,10.0,WNW,20.7,28.8,N/A,,Clear,300,2013-02-23 21:53:00
2:53 PM,51.1,19.0,28,30.05,10.0,WNW,21.9,33.4,N/A,,Clear,290,2013-02-23 22:53:00
3:53 PM,48.9,19.0,31,30.09,10.0,NW,26.5,33.4,N/A,,Clear,310,2013-02-23 23:53:00
4:53 PM,46.0,21.9,39,30.12,10.0,WNW,11.5,-,N/A,,Clear,300,2013-02-24 00:53:00
5:53 PM,42.1,21.9,45,30.14,10.0,WNW,10.4,-,N/A,,Clear,300,2013-02-24 01:53:00
6:53 PM,42.1,21.9,45,30.18,10.0,WNW,12.7,21.9,N/A,,Clear,300,2013-02-24 02:53:00
7:53 PM,42.1,19.9,41,30.19,10.0,WNW,16.1,24.2,N/A,,Clear,300,2013-02-24 03:53:00
8:53 PM,42.1,18.0,38,30.20,10.0,NW,21.9,27.6,N/A,,Clear,310,2013-02-24 04:53:00
9:53 PM,37.0,19.9,50,30.23,10.0,Variable,4.6,-,N/A,,Clear,0,2013-02-24 05:53:00
10:53 PM,39.0,19.9,46,30.24,10.0,West,6.9,-,N/A,,Clear,280,2013-02-24 06:53:00
11:53 PM,37.9,19.9,48,30.24,10.0,Variable,3.5,-,N/A,,Clear,0,2013-02-24 07:53:00